TimeCST,TemperatureF,Dew PointF,Humidity,Sea Level PressureIn,VisibilityMPH,Wind Direction,Wind SpeedMPH,Gust SpeedMPH,PrecipitationIn,Events,Conditions,WindDirDegrees,DateUTC
12:53 AM,33.1,28.9,85,30.31,10.0,Calm,Calm,-,N/A,,Clear,0,2013-01-06 06:53:00
1:53 AM,30.0,27.0,88,30.32,10.0,Calm,Calm,-,N/A,,Clear,0,2013-01-06 07:53:00
2:41 AM,30.2,26.6,86,30.31,8.0,Calm,Calm,-,N/A,,Partly Cloudy,0,2013-01-06 08:41:00
2:53 AM,30.0,27.0,88,30.31,7.0,NNE,3.5,-,N/A,,Partly Cloudy,30,2013-01-06 08:53:00
3:03 AM,30.2,26.6,86,30.31,2.0,Calm,Calm,-,N/A,,Mostly Cloudy,0,2013-01-06 09:03:00
3:06 AM,30.2,26.6,86,30.31,0.8,Calm,Calm,-,N/A,,Mist,0,2013-01-06 09:06:00
3:20 AM,28.4,26.6,93,30.30,2.0,Calm,Calm,-,N/A,,Overcast,0,2013-01-06 09:20:00
3:27 AM,30.2,28.4,93,30.30,4.0,Calm,Calm,-,N/A,,Overcast,0,2013-01-06 09:27:00
3:36 AM,30.2,28.4,93,30.31,2.0,Calm,Calm,-,N/A,,Overcast,0,2013-01-06 09:36:00
3:53 AM,30.0,28.0,92,30.31,0.8,Calm,Calm,-,N/A,,Mist,0,2013-01-06 09:53:00
4:53 AM,28.9,26.1,89,30.32,0.2,NNE,3.5,-,N/A,Fog,Light Freezing Fog,20,2013-01-06 10:53:00
5:17 AM,28.4,26.6,93,30.32,2.0,Calm,Calm,-,N/A,,Mist,0,2013-01-06 11:17:00
5:25 AM,28.4,26.6,93,30.32,5.0,Calm,Calm,-,N/A,,Partly Cloudy,0,2013-01-06 11:25:00
5:53 AM,27.0,25.0,92,30.33,5.0,North,3.5,-,N/A,,Clear,10,2013-01-06 11:53:00
6:05 AM,26.6,24.8,93,30.32,2.0,NNE,3.5,-,N/A,,Partly Cloudy,30,2013-01-06 12:05:00
6:07 AM,26.6,24.8,93,30.32,1.0,NNE,3.5,-,N/A,,Mist,20,2013-01-06 12:07:00
6:14 AM,26.6,24.8,93,30.32,0.5,North,3.5,-,N/A,Fog,Light Freezing Fog,10,2013-01-06 12:14:00
6:20 AM,26.6,24.8,93,30.33,1.2,North,3.5,-,N/A,,Scattered Clouds,10,2013-01-06 12:20:00
6:25 AM,26.6,24.8,93,30.33,3.0,North,3.5,-,N/A,,Partly Cloudy,10,2013-01-06 12:25:00
6:53 AM,28.0,26.1,92,30.34,4.0,North,4.6,-,N/A,,Clear,360,2013-01-06 12:53:00
7:53 AM,33.1,32.0,96,30.36,5.0,North,5.8,-,N/A,,Clear,350,2013-01-06 13:53:00
8:53 AM,37.9,28.9,70,30.38,10.0,North,8.1,-,N/A,,Clear,360,2013-01-06 14:53:00
9:53 AM,43.0,30.0,60,30.40,10.0,North,10.4,-,N/A,,Clear,10,2013-01-06 15:53:00
10:53 AM,48.9,30.0,48,30.40,10.0,North,8.1,-,N/A,,Clear,360,2013-01-06 16:53:00
11:53 AM,51.1,28.0,41,30.39,10.0,NNW,11.5,-,N/A,,Clear,340,2013-01-06 17:53:00
12:53 PM,54.0,28.0,37,30.35,10.0,North,12.7,17.3,N/A,,Clear,350,2013-01-06 18:53:00
1:53 PM,57.0,26.1,30,30.33,10.0,North,11.5,-,N/A,,Clear,360,2013-01-06 19:53:00
2:53 PM,57.0,25.0,29,30.32,10.0,North,8.1,-,N/A,,Clear,350,2013-01-06 20:53:00
3:53 PM,57.0,21.9,26,30.33,10.0,North,11.5,-,N/A,,Clear,360,2013-01-06 21:53:00
4:53 PM,54.0,24.1,31,30.33,10.0,North,11.5,-,N/A,,Clear,360,2013-01-06 22:53:00
5:53 PM,48.0,25.0,41,30.33,10.0,NNE,5.8,-,N/A,,Clear,20,2013-01-06 23:53:00
6:53 PM,45.0,25.0,46,30.35,10.0,Calm,Calm,-,N/A,,Clear,0,2013-01-07 00:53:00
7:53 PM,39.9,25.0,55,30.36,10.0,Calm,Calm,-,N/A,,Clear,0,2013-01-07 01:53:00
8:53 PM,36.0,26.1,67,30.37,10.0,Calm,Calm,-,N/A,,Clear,0,2013-01-07 02:53:00
9:53 PM,32.0,25.0,75,30.37,10.0,NNE,3.5,-,N/A,,Clear,30,2013-01-07 03:53:00
10:53 PM,30.0,24.1,79,30.36,10.0,NNE,3.5,-,N/A,,Clear,20,2013-01-07 04:53:00
11:53 PM,28.9,24.1,82,30.35,10.0,Calm,Calm,-,N/A,,Clear,0,2013-01-07 05:53:00